User: anonymous   Login
Location: Dannhausen
(51.8650°N, 10.1026°E)
Time: 09:55:44
(UTC+00:00)
Language:

STARLINK-1200 - Orbit

View from above orbital plane
View from above orbital plane
View from above satellite
View from above satellite

Ground track
Ground track

The orbit data is extracted from the following two-line orbital elements,

1 45181U 20012D   20185.16667824 -.00038651  00000-0 -26473-2 0  9999
2 45181  52.9985   4.0027 0001303 100.5958 193.9683 15.05590164 21375
Epoch (UTC): 03 July 2020 04:00:01
Eccentricity: 0.0001303
inclination: 52.9985°
perigee height: 549 km
apogee height: 550 km
right ascension of ascending node: 4.0027°
argument of perigee: 100.5958°
revolutions per day: 15.05590164
mean anomaly at epoch: 193.9683°
orbit number at epoch: 2137

The dashed part of the orbit path shows where the satellite is in the earth's shadow,  

DLR